Погода в Сабуровке

Россия / Воронежская область     51°34′56″N   40°22′18″E
темп.,
°C
ветер,
м/с
пор.,
м/с
влажн.,
%
обл.,
%
осадки,
мм/ч
давл.,
гПа
погр.,
м
21 июня, пн
пн2100:00+18в4108194 0.0 1020154
03:00+17в41180100 0.0 1020183
06:00+18вюв4117888 0.0 1020243
09:00+23вюв5663100 0.0 1020350
12:00+28вюв455111 0.0 1020741
15:00+28вюв565110 0.0 1020965
18:00+28вюв36645 0.0 1019262
21:00+22в46760 0.0 102081
22 июня, вт
вт2200:00+20в410780 0.0 1020152
03:00+18в49790 0.0 1020140
06:00+19в410810 0.0 1020196
09:00+25в586597 0.0 1020383
12:00+29в5753100 0.0 1020863
15:00+30в564916 0.0 10191414
18:00+28всв4866100 0.0 1019282
21:00+23всв4774100 0.0 1019102
23 июня, ср
ср2300:00+21в47778 0.0 1020108
03:00+20всв49785 0.0 1019135
06:00+21всв410805 0.0 1019203
09:00+26в586069 0.0 1019434
12:00+29в574946 0.0 1019760
15:00+31в4546100 0.0 10191192
18:00+30в2363100 0.0 1018142
21:00+26в367297 0.0 1019115
24 июня, чт
чт2400:00+23в347282 0.0 101948
03:00+21всв46705 0.0 101990
06:00+22в37804 0.0 1019162
09:00+28в45625 0.0 1019463
12:00+30всв34505 0.0 10181346
15:00+31всв34455 0.0 10182056
18:00+30в235781 0.0 1016249
21:00+24св336380 0.0 101730
25 июня, пт
пт2500:00+19в23848 0.0 101744
03:00+19св33815 0.0 101746
06:00+20св37795 0.0 1017175
09:00+25всв34597 0.0 1016381
12:00+29св445235 0.0 1016823
15:00+30св455131 0.0 10161321
18:00+28св356483 0.0 1015358
21:00+23всв22796 0.0 101311